Wind_Speed
17 16 15 14 13 12 11 11 11 10 10 10 9 8 8 8 8 7 7 7 7 7 7 8 8 8 9 10 10 11 11 11 12 12 13 13 14 14 14 15 15 16 17
19 18 17 16 15 14 13 13 12 12 11 11 10 10 9 9 9 9 9 8 8 8 9 9 9 10 10 11 12 12 13 13 13 14 14 15 15 16 16 16 17 17 18
21 20 19 18 17 16 15 14 14 14 13 12 12 11 11 11 10 10 10 10 10 10 10 10 11 11 12 13 13 14 14 15 15 16 16 16 17 17 17 18 18 19 19
23 22 20 20 19 18 17 16 16 15 14 13 13 12 12 12 11 11 12 12 11 11 12 12 12 13 13 14 15 15 16 16 17 17 17 17 18 18 19 19 20 20 21
24 23 22 21 20 20 19 18 17 16 16 15 14 14 13 13 13 12 13 13 12 13 13 13 14 15 15 15 16 16 17 17 18 18 18 18 19 20 20 21 22 22 23
26 25 24 23 22 21 21 20 19 18 17 16 16 15 15 14 13 13 13 14 14 14 15 15 16 16 17 17 17 18 18 18 18 19 19 20 20 21 22 23 24 24 25
27 26 26 25 24 23 23 22 21 20 19 18 17 17 16 16 15 15 15 15 16 16 17 17 17 18 18 18 19 19 19 20 20 20 21 21 22 23 24 25 26 26 26
28 28 27 27 26 25 24 23 22 21 20 19 19 18 18 18 17 17 17 17 17 17 18 18 19 19 19 20 20 20 20 21 21 22 22 23 24 25 26 27 27 28 28
30 29 28 28 28 27 25 24 23 22 21 21 20 20 19 19 19 18 18 18 18 19 20 20 20 21 21 21 21 21 21 22 22 23 24 25 26 27 28 28 28 29 29
32 31 30 29 29 28 27 25 25 24 23 22 22 21 21 20 20 20 20 20 20 21 21 21 21 21 22 22 22 22 22 23 24 24 25 26 27 28 28 29 29 30 30
33 32 31 31 30 29 28 27 26 26 25 24 23 23 22 22 21 21 21 21 22 22 22 22 22 22 23 23 23 23 24 25 25 26 27 28 28 29 29 30 31 31 32
34 33 32 31 31 30 29 28 28 27 26 25 25 24 23 23 23 22 23 23 23 23 24 24 24 23 24 24 24 25 25 26 27 28 29 29 29 30 30 31 32 33 33
35 34 33 33 32 31 30 29 29 28 27 27 26 25 24 24 24 24 24 24 25 25 25 25 25 24 25 25 25 26 27 28 29 29 29 29 30 31 32 32 33 34 34
36 35 35 34 33 33 31 31 30 29 28 28 27 26 26 26 26 26 26 26 26 26 26 26 26 26 26 26 27 28 29 30 30 30 30 31 31 32 33 33 34 34 34
38 37 36 35 35 34 33 32 31 31 30 29 29 28 27 27 27 27 27 27 27 27 27 27 27 27 27 28 28 29 29 30 31 30 31 32 32 33 33 34 34 33 33
39 38 37 37 36 35 34 33 33 32 31 31 30 29 29 28 28 28 28 28 28 28 28 28 28 28 28 29 29 29 30 31 31 31 31 32 32 33 33 33 33 32 32
39 39 38 38 37 36 35 33 33 33 32 31 31 31 30 30 29 29 28 28 29 29 29 29 29 29 29 30 31 31 31 32 32 32 32 32 32 33 33 33 33 32 32
40 39 39 39 38 37 36 35 34 33 33 32 31 31 31 31 30 30 30 29 29 30 30 29 30 30 30 30 31 31 32 32 32 33 32 32 32 32 33 32 32 32 32
40 39 40 40 39 38 37 37 36 35 34 33 32 31 31 31 31 31 31 30 30 30 30 30 30 29 30 31 32 32 32 32 33 33 33 32 32 32 33 32 32 32 32
41 40 40 41 41 40 38 38 37 36 35 34 33 32 32 32 32 32 31 31 31 31 31 31 30 30 30 31 32 32 32 33 33 33 32 32 32 32 32 33 33 32 32
43 41 40 41 41 41 40 38 38 37 36 35 34 33 33 33 32 31 31 31 31 31 30 30 31 31 32 32 32 33 33 33 33 32 32 32 32 33 33 33 33 33 33
43 43 42 41 41 41 40 39 38 38 37 36 35 34 34 33 32 32 32 31 31 31 30 31 32 32 32 32 32 32 32 32 32 32 32 32 33 33 33 33 33 33 33
43 43 43 42 41 41 41 40 39 38 38 37 37 36 34 34 33 33 33 32 32 32 32 32 32 32 32 32 32 32 32 31 31 32 32 33 33 33 33 33 33 33 34
42 43 43 43 42 41 41 41 41 40 39 38 37 37 36 35 34 34 33 33 33 33 33 33 33 33 33 32 32 32 32 31 31 31 31 32 32 33 33 33 33 34 34
41 42 42 42 42 42 41 41 41 41 40 39 38 38 37 36 36 36 35 34 34 34 33 34 33 33 33 33 33 32 32 32 32 32 31 32 33 34 34 34 34 34 34
40 41 41 42 42 43 42 41 41 41 40 40 39 39 39 38 37 36 36 35 35 35 35 34 34 34 34 34 34 33 33 33 33 33 32 32 32 33 33 34 33 33 33
Wind_Direction
222 222 223 221 220 220 223 225 227 229 233 235 238 240 243 248 253 257 262 269 277 284 291 298 302 305 304 305 306 307 308 308 307 307 308 308 307 308 307 307 308 307 306
226 226 225 225 224 224 226 228 230 233 236 240 243 245 249 252 257 262 268 273 277 283 289 295 300 303 304 304 304 305 305 305 305 305 306 305 305 306 306 305 306 305 304
229 227 227 228 228 228 230 231 233 236 238 242 245 248 252 255 258 263 269 274 277 282 288 293 297 300 302 303 303 303 302 303 303 303 303 303 303 303 304 304 304 304 304
230 228 228 230 231 231 232 234 235 237 241 242 245 249 253 256 260 265 269 273 277 282 287 292 295 298 301 302 303 302 302 302 302 301 301 301 301 301 302 302 302 302 302
231 231 230 231 232 232 234 235 237 239 242 243 245 248 252 257 261 265 270 273 278 282 287 291 295 297 299 301 302 302 302 302 301 300 300 300 300 300 300 301 301 301 301
232 233 232 232 233 233 234 236 237 239 242 243 245 247 251 256 261 266 269 272 277 282 286 290 294 297 298 299 301 301 301 301 300 300 300 300 300 299 299 300 301 301 300
232 234 234 233 234 235 235 236 238 240 242 243 246 249 252 256 261 266 270 273 277 281 285 289 292 295 296 298 299 300 300 300 300 300 300 300 300 300 300 300 300 299 298
233 234 235 234 235 235 236 238 239 240 242 244 247 250 253 257 261 265 269 273 277 281 283 286 290 292 294 295 296 297 298 299 300 300 301 300 300 300 301 301 300 299 298
232 233 234 235 235 235 236 237 239 241 243 245 247 250 254 257 261 265 269 273 277 281 283 285 288 289 291 292 293 294 296 297 299 300 300 300 300 300 300 300 299 298 297
232 232 232 234 234 235 236 237 239 241 243 245 248 251 254 258 261 265 269 273 277 280 282 284 286 288 290 291 292 293 294 296 298 299 299 300 300 300 300 300 299 299 298
232 232 231 233 233 234 235 237 239 241 244 246 249 251 254 258 262 266 269 273 276 279 281 283 285 286 288 290 291 291 293 295 297 298 299 299 299 300 300 300 299 299 298
232 232 231 231 232 233 235 237 238 241 244 247 249 252 256 260 264 267 269 273 276 279 280 282 284 285 287 288 289 290 292 295 297 298 299 299 299 300 300 300 299 299 298
232 232 230 230 231 233 235 236 238 241 244 248 250 253 256 260 264 267 270 273 276 277 279 281 282 284 285 287 289 290 293 295 297 298 298 298 298 300 300 300 300 299 299
231 231 230 231 233 234 235 237 239 241 244 248 251 253 257 261 264 267 270 273 275 276 278 279 280 282 284 286 288 290 292 295 296 297 297 298 298 300 300 300 300 300 300
230 230 231 231 232 234 235 237 241 243 245 248 251 254 257 260 264 266 269 272 274 275 276 277 279 281 283 286 288 290 292 294 295 296 297 298 299 300 301 301 300 300 300
230 230 231 232 232 233 235 238 241 244 246 248 251 253 256 259 262 265 268 271 273 274 275 276 278 280 282 285 287 289 291 294 294 296 297 298 298 300 301 301 300 300 300
231 231 231 232 233 233 235 237 240 244 246 249 250 252 255 258 261 264 267 270 272 273 274 275 277 279 281 283 286 289 291 293 294 295 296 297 298 299 301 301 301 300 299
231 231 231 232 233 234 235 237 239 242 245 248 251 253 255 258 261 264 267 269 271 272 274 275 277 279 281 283 286 288 290 292 293 295 295 296 297 299 301 301 302 301 300
231 231 232 232 233 235 236 238 241 243 244 248 251 254 255 258 261 264 266 268 271 272 274 276 278 280 281 284 286 288 290 291 293 295 295 296 296 298 299 300 300 301 300
231 232 232 233 233 235 237 239 241 243 245 247 250 253 255 258 261 263 266 268 269 272 274 275 276 279 282 284 286 288 290 291 293 294 295 295 295 297 299 299 300 300 300
231 232 233 234 235 235 237 239 242 244 246 248 250 253 256 258 262 264 265 267 269 271 273 275 277 279 281 284 287 288 290 291 292 293 293 294 295 297 299 299 299 299 299
232 232 232 233 235 237 238 239 242 245 247 249 251 253 256 258 261 265 267 268 270 271 272 275 277 280 281 283 286 288 290 290 291 292 293 295 296 297 298 299 299 298 298
232 232 233 233 235 238 239 239 241 244 247 249 251 254 257 258 260 263 265 267 269 271 272 275 277 278 281 283 286 287 288 289 290 292 293 294 296 298 299 299 300 300 299
233 233 234 235 235 237 240 241 243 245 247 249 252 254 256 257 260 263 266 268 269 271 272 274 277 278 281 283 285 288 289 289 289 291 292 294 297 299 300 300 300 301 301
234 235 235 236 236 237 239 241 243 246 247 249 252 254 256 259 261 263 266 268 270 272 273 275 277 278 279 281 284 286 288 289 289 290 292 294 296 298 300 301 301 302 302
235 236 237 237 237 238 240 242 244 246 248 250 252 254 256 258 260 262 265 267 270 272 274 275 277 279 280 282 284 286 287 289 290 290 292 293 295 297 299 302 303 304 304
Height
5869 5870 5872 5873 5874 5875 5876 5877 5878 5879 5880 5881 5882 5882 5883 5883 5884 5884 5884 5884 5884 5883 5883 5882 5882 5881 5880 5880 5879 5878 5877 5876 5875 5874 5873 5872 5870 5869 5868 5866 5865 5864 5862
5866 5868 5870 5871 5872 5873 5875 5876 5877 5878 5879 5879 5880 5881 5882 5882 5882 5883 5882 5882 5882 5882 5882 5881 5880 5880 5879 5878 5877 5876 5875 5874 5873 5872 5871 5869 5868 5867 5865 5864 5863 5861 5860
5863 5865 5867 5869 5870 5871 5873 5874 5875 5876 5877 5878 5878 5879 5880 5880 5881 5881 5881 5881 5881 5880 5880 5879 5879 5878 5877 5876 5875 5874 5873 5872 5870 5870 5868 5867 5866 5864 5863 5861 5860 5858 5857
5859 5862 5864 5866 5867 5869 5870 5872 5873 5874 5875 5876 5876 5877 5878 5878 5879 5879 5879 5879 5879 5878 5878 5877 5877 5876 5875 5874 5873 5872 5870 5869 5868 5867 5866 5864 5863 5861 5860 5858 5857 5855 5853
5856 5858 5860 5862 5864 5866 5867 5869 5870 5871 5872 5873 5874 5875 5876 5876 5876 5876 5877 5876 5876 5876 5876 5875 5874 5874 5873 5872 5870 5869 5868 5866 5865 5864 5863 5861 5860 5858 5856 5855 5853 5851 5849
5852 5854 5856 5858 5860 5862 5864 5866 5867 5869 5870 5871 5872 5872 5873 5874 5874 5874 5874 5874 5874 5874 5873 5872 5872 5871 5870 5869 5867 5866 5865 5863 5862 5860 5859 5858 5856 5854 5852 5851 5849 5847 5845
5848 5850 5852 5854 5856 5859 5860 5862 5864 5865 5867 5868 5869 5870 5870 5871 5871 5871 5871 5871 5871 5871 5870 5869 5869 5868 5867 5866 5864 5863 5861 5860 5858 5857 5855 5854 5852 5850 5848 5846 5844 5842 5840
5843 5846 5848 5850 5852 5854 5857 5858 5860 5862 5863 5865 5866 5867 5867 5868 5868 5868 5868 5868 5868 5867 5867 5866 5865 5864 5863 5862 5861 5859 5858 5856 5855 5853 5851 5849 5847 5845 5843 5841 5839 5837 5835
5837 5840 5843 5845 5848 5850 5852 5854 5856 5858 5860 5861 5862 5863 5864 5865 5865 5865 5865 5865 5864 5864 5863 5862 5862 5861 5859 5858 5857 5855 5854 5852 5851 5849 5847 5845 5842 5840 5838 5835 5833 5831 5829
5832 5835 5838 5840 5843 5845 5848 5850 5852 5854 5856 5857 5858 5859 5860 5861 5861 5862 5862 5861 5861 5860 5859 5858 5858 5856 5855 5854 5853 5851 5850 5848 5846 5844 5842 5840 5837 5835 5832 5830 5828 5825 5823
5826 5829 5832 5835 5838 5841 5843 5845 5847 5849 5851 5853 5854 5855 5856 5857 5857 5857 5857 5857 5857 5856 5855 5854 5853 5852 5851 5849 5848 5846 5845 5843 5841 5839 5837 5834 5832 5829 5827 5824 5822 5819 5816
5820 5824 5827 5829 5832 5835 5838 5840 5843 5845 5846 5848 5849 5851 5852 5852 5853 5853 5853 5853 5852 5851 5851 5850 5848 5847 5846 5845 5843 5842 5840 5838 5836 5834 5831 5828 5826 5824 5821 5818 5816 5813 5810
5813 5817 5820 5824 5826 5829 5832 5835 5837 5840 5842 5843 5845 5846 5847 5848 5848 5848 5848 5848 5847 5846 5846 5845 5844 5842 5841 5840 5838 5837 5835 5833 5831 5828 5825 5823 5820 5818 5815 5812 5809 5806 5803
5807 5811 5814 5817 5821 5824 5827 5829 5832 5834 5836 5838 5839 5841 5842 5843 5843 5843 5843 5843 5842 5841 5840 5840 5838 5837 5836 5834 5833 5831 5829 5827 5825 5822 5820 5817 5814 5812 5809 5805 5802 5799 5795
5800 5804 5808 5811 5814 5818 5821 5824 5826 5828 5831 5832 5834 5835 5836 5837 5838 5838 5838 5837 5836 5836 5835 5834 5833 5832 5830 5829 5827 5825 5823 5821 5819 5816 5814 5811 5808 5805 5802 5799 5795 5792 5788
5793 5797 5801 5804 5808 5811 5815 5818 5820 5822 5824 5826 5828 5829 5830 5831 5832 5832 5832 5831 5830 5830 5829 5828 5827 5826 5824 5823 5821 5819 5817 5815 5813 5810 5807 5805 5802 5798 5795 5792 5788 5785 5781
5785 5790 5794 5797 5801 5805 5808 5811 5814 5816 5818 5820 5821 5823 5824 5825 5825 5825 5825 5825 5824 5824 5823 5822 5821 5819 5818 5816 5815 5813 5811 5809 5806 5804 5801 5798 5795 5792 5788 5785 5781 5778 5774
5778 5782 5786 5790 5794 5797 5801 5804 5806 5809 5811 5813 5814 5816 5817 5818 5818 5819 5819 5818 5818 5817 5816 5815 5814 5813 5811 5810 5808 5806 5804 5802 5799 5797 5794 5791 5788 5785 5782 5778 5774 5771 5767
5770 5774 5779 5783 5787 5790 5793 5796 5799 5801 5804 5806 5807 5809 5810 5811 5811 5812 5812 5812 5811 5811 5810 5809 5808 5806 5805 5803 5802 5799 5797 5795 5792 5790 5787 5784 5781 5778 5775 5771 5767 5764 5760
5762 5767 5771 5775 5779 5783 5786 5789 5791 5794 5796 5798 5800 5802 5803 5804 5804 5805 5805 5804 5804 5804 5803 5802 5801 5800 5798 5797 5795 5792 5790 5788 5785 5783 5780 5777 5774 5771 5767 5764 5760 5757 5753
5754 5759 5763 5767 5771 5774 5778 5781 5784 5786 5789 5791 5793 5794 5795 5796 5797 5797 5797 5797 5797 5797 5796 5795 5794 5792 5791 5790 5788 5785 5783 5780 5778 5775 5772 5770 5767 5763 5760 5756 5753 5750 5746
5745 5750 5755 5759 5763 5766 5770 5773 5776 5778 5781 5783 5785 5786 5787 5788 5789 5790 5790 5790 5789 5789 5788 5787 5786 5785 5784 5782 5780 5778 5777 5774 5771 5768 5765 5762 5759 5756 5752 5749 5745 5742 5738
5737 5741 5746 5750 5754 5758 5762 5765 5768 5771 5773 5775 5777 5779 5780 5781 5781 5782 5782 5782 5782 5781 5780 5779 5779 5778 5776 5775 5773 5772 5770 5768 5765 5762 5758 5755 5752 5749 5745 5741 5738 5734 5730
5728 5733 5737 5741 5745 5749 5753 5756 5760 5762 5765 5767 5769 5770 5772 5773 5773 5774 5773 5774 5774 5773 5773 5772 5771 5770 5768 5767 5765 5763 5762 5760 5758 5756 5752 5748 5745 5741 5738 5734 5730 5726 5722
5720 5724 5728 5733 5737 5740 5744 5748 5751 5754 5756 5758 5760 5762 5763 5764 5765 5765 5766 5766 5766 5765 5765 5764 5763 5762 5761 5759 5757 5756 5754 5752 5750 5748 5746 5742 5738 5734 5730 5727 5723 5719 5714
5711 5716 5720 5724 5728 5731 5735 5739 5742 5745 5747 5750 5752 5753 5755 5756 5757 5757 5757 5758 5758 5757 5757 5756 5755 5754 5753 5751 5750 5748 5746 5745 5742 5740 5738 5735 5732 5728 5723 5719 5715 5711 5707